Regional Weather Roundup
Issued by NWS State College, PA

Home | Current Version | Previous Version | Graphics & Text | Print | Product List | Glossary On
Versions: 1 2 3 4 5 6 7 8 9 10 11 12 13 14 15 16 17 18 19 20 21 22 23 24 25 26 27 28 29 30 31 32 33 34 35 36 37 38 39 40 41 42 43 44 45 46 47 48 49 50
000
ASUS41 KCTP 190510
RWRCTP

REGIONAL WEATHER ROUNDUP
NATIONAL WEATHER SERVICE STATE COLLEGE PA
100 AM EDT SUN APR 19 2015

Note: "fair" indicates few or no clouds below 12,000 feet with no
significant weather and/or obstructions to visibility.

* = STATION THAT DOES NOT REPORT PRECIPITATION /E.G. RAIN...SNOW...ETC/
    THUNDER OR FOG.

PAZ002>004-007>009-013>016-020>023-029>032-190600-
WESTERN PENNSYLVANIA

CITY           SKY/WX    TMP DP  RH WIND       PRES   REMARKS
ERIE           PTCLDY    49  27  42 NE13      30.14S
MEADVILLE      MOCLDY    48  25  40 NE10      30.11F
FRANKLIN*      MOCLDY    46  25  42 NE9       30.12F
NEW CASTLE     FAIR      54  34  46 NE7       30.09F
BEAVER COUNTY  NOT AVBL
BUTLER*        CLOUDY    54  34  47 E8        30.10S
PITTSBURGH INT CLOUDY    61  38  42 NE9       30.06F
PITTSBURGH     CLOUDY    60  34  37 NE6       30.05F
INDIANA*       CLOUDY    55  37  50 E3        30.12S
LATROBE        CLOUDY    57  41  54 NE6       30.09S
WASHINGTON CO* CLOUDY    61  39  44 NE5       30.08S
$$

PAZ004>006-010>012-017>019-024>028-033>037-041-042-045-046-049>053-190600-
CENTRAL PENNSYLVANIA

CITY           SKY/WX    TMP DP  RH WIND       PRES   REMARKS
BRADFORD       PTCLDY    46  23  40 NE3       30.13F
DUBOIS         MOCLDY    52  26  36 NE8       30.10R
CLEARFIELD     MOCLDY    53  30  41 E5        30.11R
JOHNSTOWN      MOCLDY    55  35  47 NE8       30.09R
ALTOONA        MOCLDY    57  34  41 NE8       30.09R
STATE COLLEGE  MOCLDY    55  26  32 NE10G16   30.11R
WILLIAMSPORT   MOCLDY    57  24  28 N5        30.12R
SELINSGROVE    MOCLDY    56  29  35 N10       30.11S
FT INDIANTOWN  MOCLDY    60  26  26 NE6       30.08R
CAPITAL CITY   MOCLDY    63  31  30 E5        30.07R
HARRISBURG     MOCLDY    63  31  30 NE7       30.06S
YORK           CLOUDY    62  38  40 NE5       30.06S
$$

PAZ038>040-043-044-047-048-054-055-060>062-067>071-190600-
EASTERN PENNSYLVANIA

CITY           SKY/WX    TMP DP  RH WIND       PRES   REMARKS
SCRANTON       PTCLDY    51  29  42 NE5       30.11F
MOUNT POCONO   MOCLDY    51  24  34 N12G22    30.08R
ALLENTOWN      MOCLDY    58  28  32 NE10      30.08R
QUAKERTOWN*    MOCLDY    59  28  31 NE8       30.09R
READING        MOCLDY    61  22  22 NE5       30.07R
LANCASTER      MOCLDY    58  30  34 E6        30.07R
COATESVILLE    CLOUDY    61  32  33 NE5       30.08R
POTTSTOWN      MOCLDY    59  25  27 NE5       30.09R
BLUE BELL      MOCLDY    63  28  27 CALM      30.08R
DOYLESTOWN     MOCLDY    58  25  28 VRB7      30.08R
WILLOW GROVE   NOT AVBL
NORTH PHILA    MOCLDY    64  22  20 N12       30.09R
PHILADELPHIA   MOCLDY    66  26  22 N12       30.07R
$$


USA.gov is the U.S. government's official web portal to all federal, state and local government web resources and services.